• In Deutschland
  • Länderverzeichnis
  • Für 7 Tage
  • Wassertemperatur
  • Satellitenkarten
  • Wetterkarte
  • Widgets
  • user-avatar
    Anmelden

    Stündliche Wetter Bad Homburg vor der Höhe

    Heute, 11 Dezember, Montag

    Zeit Temperatur Niederschläge Wind Luftdruck Luftfeuchtigkeit
    00:00 +3°C° 0,6 mm 6 m/S 713 mmHg 90%
    01:00 +4°C° 0 mm 4 m/S 714 mmHg 90%
    02:00 +3°C° 0,1 mm 3 m/S 714 mmHg 91%
    03:00 +3°C° 0,1 mm 3 m/S 715 mmHg 93%
    04:00 +3°C° 0,1 mm 2 m/S 715 mmHg 94%
    05:00 +3°C° 0,1 mm 2 m/S 715 mmHg 95%
    06:00 +4°C° 0,1 mm 1 m/S 714 mmHg 96%
    07:00 +3°C° 0,1 mm 1 m/S 714 mmHg 96%
    08:00 +3°C° 1,7 mm 2 m/S 714 mmHg 96%
    09:00 +3°C° 1,7 mm 2 m/S 713 mmHg 96%
    10:00 +2°C° 1,7 mm 3 m/S 713 mmHg 96%
    11:00 +2°C° 2,1 mm 3 m/S 713 mmHg 94%
    12:00 +3°C° 2,1 mm 4 m/S 712 mmHg 93%
    13:00 +3°C° 2,1 mm 4 m/S 712 mmHg 91%
    14:00 +3°C° 0,7 mm 3 m/S 712 mmHg 92%
    15:00 +3°C° 0,7 mm 3 m/S 713 mmHg 94%
    16:00 +4°C° 0,7 mm 2 m/S 713 mmHg 95%
    17:00 +3°C° 0,4 mm 3 m/S 713 mmHg 94%
    18:00 +4°C° 0,4 mm 3 m/S 714 mmHg 93%
    19:00 +4°C° 0,4 mm 4 m/S 714 mmHg 92%
    20:00 +4°C° 0 mm 4 m/S 715 mmHg 88%
    21:00 +4°C° 0 mm 4 m/S 715 mmHg 85%
    22:00 +3°C° 0 mm 5 m/S 715 mmHg 81%
    23:00 +3°C° 0 mm 5 m/S 715 mmHg 81%

    Morgen, 12 Dezember, Dienstag

    Zeit Temperatur Niederschläge Wind Luftdruck Luftfeuchtigkeit
    00:00 +3°C° 0 mm 5 m/S 716 mmHg 80%
    01:00 +3°C° 0 mm 6 m/S 716 mmHg 80%
    02:00 +2°C° 0 mm 6 m/S 717 mmHg 80%
    03:00 +2°C° 0 mm 7 m/S 718 mmHg 80%
    04:00 0°C° 0 mm 7 m/S 719 mmHg 79%
    05:00 0°C° 0,1 mm 7 m/S 721 mmHg 80%
    06:00 0°C° 0,1 mm 7 m/S 723 mmHg 81%
    07:00 -1°C° 0,1 mm 6 m/S 724 mmHg 81%
    08:00 -1°C° 0,1 mm 6 m/S 726 mmHg 80%
    09:00 -1°C° 0,1 mm 6 m/S 728 mmHg 79%
    10:00 0°C° 0,1 mm 5 m/S 729 mmHg 78%
    11:00 +1°C° 0 mm 5 m/S 730 mmHg 76%
    12:00 +1°C° 0 mm 5 m/S 731 mmHg 74%
    13:00 +1°C° 0 mm 5 m/S 732 mmHg 72%
    14:00 +1°C° 0 mm 5 m/S 733 mmHg 74%
    15:00 +1°C° 0 mm 4 m/S 733 mmHg 77%
    16:00 0°C° 0 mm 4 m/S 734 mmHg 79%
    17:00 0°C° 0 mm 4 m/S 735 mmHg 81%
    18:00 0°C° 0 mm 4 m/S 735 mmHg 83%
    19:00 0°C° 0 mm 3 m/S 736 mmHg 85%
    20:00 0°C° 0 mm 3 m/S 737 mmHg 86%
    21:00 0°C° 0 mm 3 m/S 737 mmHg 87%
    22:00 -1°C° 0 mm 3 m/S 738 mmHg 88%
    23:00 -1°C° 0 mm 3 m/S 738 mmHg 88%

    übermorgen, 13 Dezember, Mittwoch

    Zeit Temperatur Niederschläge Wind Luftdruck Luftfeuchtigkeit
    00:00 -1°C° 0 mm 3 m/S 738 mmHg 89%
    01:00 -2°C° 0 mm 3 m/S 738 mmHg 90%
    02:00 -2°C° 0 mm 3 m/S 738 mmHg 90%
    03:00 -1°C° 0 mm 3 m/S 738 mmHg 90%
    04:00 -1°C° 0 mm 3 m/S 738 mmHg 90%
    05:00 -2°C° 0 mm 4 m/S 737 mmHg 89%
    06:00 -2°C° 0 mm 4 m/S 737 mmHg 87%
    07:00 -1°C° 0 mm 5 m/S 737 mmHg 86%
    08:00 -1°C° 0 mm 5 m/S 736 mmHg 84%
    09:00 -1°C° 0 mm 5 m/S 736 mmHg 81%
    10:00 -1°C° 0 mm 6 m/S 735 mmHg 79%
    11:00 -1°C° 0,2 mm 6 m/S 734 mmHg 78%
    12:00 +1°C° 0,2 mm 6 m/S 733 mmHg 76%
    13:00 0°C° 0,2 mm 7 m/S 733 mmHg 75%
    14:00 +1°C° 0,8 mm 6 m/S 732 mmHg 78%
    15:00 +1°C° 0,8 mm 6 m/S 731 mmHg 80%
    16:00 +1°C° 0,8 mm 6 m/S 730 mmHg 83%
    17:00 +1°C° 0,4 mm 6 m/S 730 mmHg 84%
    18:00 +2°C° 0,4 mm 6 m/S 729 mmHg 85%
    19:00 +2°C° 0,4 mm 6 m/S 729 mmHg 87%
    20:00 +2°C° 0,1 mm 6 m/S 728 mmHg 87%
    21:00 +2°C° 0,1 mm 6 m/S 728 mmHg 87%
    22:00 +3°C° 0,1 mm 6 m/S 727 mmHg 87%
    23:00 +3°C° 0,5 mm 6 m/S 726 mmHg 87%

    14 Dezember, Donnerstag

    Zeit Temperatur Niederschläge Wind Luftdruck Luftfeuchtigkeit
    00:00 +3°C° 0,5 mm 6 m/S 726 mmHg 87%
    01:00 +3°C° 0,5 mm 6 m/S 726 mmHg 87%
    02:00 +3°C° 0,6 mm 5 m/S 725 mmHg 88%
    03:00 +3°C° 0,6 mm 5 m/S 725 mmHg 89%
    04:00 +4°C° 0,6 mm 4 m/S 725 mmHg 90%
    05:00 +4°C° 0,1 mm 4 m/S 725 mmHg 89%
    06:00 +3°C° 0,1 mm 4 m/S 725 mmHg 89%
    07:00 +3°C° 0,1 mm 4 m/S 725 mmHg 88%
    08:00 +2°C° 0,1 mm 5 m/S 725 mmHg 86%
    09:00 +2°C° 0,1 mm 5 m/S 724 mmHg 83%
    10:00 +2°C° 0,1 mm 6 m/S 724 mmHg 80%
    11:00 +3°C° 0,8 mm 6 m/S 723 mmHg 79%
    12:00 +3°C° 0,8 mm 6 m/S 723 mmHg 79%
    13:00 +4°C° 0,8 mm 7 m/S 722 mmHg 78%
    14:00 +3°C° 1,7 mm 5 m/S 721 mmHg 80%
    15:00 +3°C° 1,7 mm 4 m/S 721 mmHg 81%
    16:00 +2°C° 1,7 mm 3 m/S 720 mmHg 83%
    17:00 +2°C° 0,2 mm 3 m/S 721 mmHg 82%
    18:00 +1°C° 0,2 mm 3 m/S 722 mmHg 82%
    19:00 +1°C° 0,2 mm 3 m/S 723 mmHg 81%
    20:00 +1°C° 0,2 mm 3 m/S 723 mmHg 83%
    21:00 +1°C° 0,2 mm 3 m/S 724 mmHg 84%
    22:00 -1°C° 0,2 mm 4 m/S 724 mmHg 85%
    23:00 0°C° 0 mm 3 m/S 725 mmHg 86%

    15 Dezember, Freitag

    Zeit Temperatur Niederschläge Wind Luftdruck Luftfeuchtigkeit
    00:00 0°C° 0 mm 3 m/S 725 mmHg 86%
    01:00 -1°C° 0 mm 3 m/S 725 mmHg 87%
    02:00 -1°C° 0 mm 3 m/S 725 mmHg 88%
    03:00 -1°C° 0 mm 3 m/S 725 mmHg 89%
    04:00 -1°C° 0 mm 3 m/S 724 mmHg 90%
    05:00 -1°C° 0,1 mm 2 m/S 724 mmHg 91%
    06:00 -1°C° 0,1 mm 2 m/S 724 mmHg 92%
    07:00 -1°C° 0,1 mm 2 m/S 724 mmHg 93%
    08:00 +1°C° 0 mm 2 m/S 724 mmHg 91%
    09:00 0°C° 0 mm 3 m/S 724 mmHg 90%
    10:00 +1°C° 0 mm 3 m/S 724 mmHg 89%
    11:00 +1°C° 0 mm 3 m/S 724 mmHg 86%
    12:00 +2°C° 0 mm 3 m/S 724 mmHg 83%
    13:00 +1°C° 0 mm 4 m/S 724 mmHg 80%
    14:00 +2°C° 0 mm 3 m/S 724 mmHg 81%
    15:00 +2°C° 0 mm 3 m/S 724 mmHg 82%
    16:00 +2°C° 0 mm 3 m/S 724 mmHg 83%
    17:00 +2°C° 0,4 mm 3 m/S 724 mmHg 85%
    18:00 +1°C° 0,4 mm 3 m/S 724 mmHg 86%
    19:00 +1°C° 0,4 mm 3 m/S 724 mmHg 87%
    20:00 +2°C° 0,2 mm 2 m/S 724 mmHg 89%
    21:00 +2°C° 0,2 mm 2 m/S 724 mmHg 90%
    22:00 +1°C° 0,2 mm 2 m/S 724 mmHg 92%
    23:00 +1°C° 0 mm 2 m/S 725 mmHg 92%

    16 Dezember, Samstag

    Zeit Temperatur Niederschläge Wind Luftdruck Luftfeuchtigkeit
    00:00 +1°C° 0 mm 2 m/S 725 mmHg 92%
    01:00 +1°C° 0 mm 2 m/S 726 mmHg 92%
    02:00 0°C° 0,1 mm 3 m/S 726 mmHg 92%
    03:00 0°C° 0,1 mm 3 m/S 727 mmHg 91%
    04:00 0°C° 0,1 mm 3 m/S 727 mmHg 91%
    05:00 0°C° 0,1 mm 3 m/S 728 mmHg 90%
    06:00 0°C° 0,1 mm 3 m/S 728 mmHg 90%
    07:00 0°C° 0,1 mm 3 m/S 729 mmHg 89%
    08:00 0°C° 0 mm 3 m/S 730 mmHg 89%
    09:00 0°C° 0 mm 3 m/S 730 mmHg 89%
    10:00 0°C° 0 mm 3 m/S 731 mmHg 88%
    11:00 +1°C° 0,4 mm 3 m/S 731 mmHg 88%
    12:00 +1°C° 0,4 mm 3 m/S 732 mmHg 88%
    13:00 +1°C° 0,4 mm 3 m/S 732 mmHg 88%
    14:00 +1°C° 0,2 mm 3 m/S 732 mmHg 86%
    15:00 +1°C° 0,2 mm 3 m/S 733 mmHg 84%
    16:00 0°C° 0,2 mm 3 m/S 733 mmHg 83%
    17:00 0°C° 0 mm 3 m/S 733 mmHg 84%
    18:00 -1°C° 0 mm 3 m/S 734 mmHg 84%
    19:00 -1°C° 0 mm 3 m/S 734 mmHg 85%
    20:00 -2°C° 0 mm 3 m/S 735 mmHg 85%
    21:00 -2°C° 0 mm 3 m/S 735 mmHg 86%
    22:00 -2°C° 0 mm 3 m/S 735 mmHg 86%
    23:00 -2°C° 0 mm 3 m/S 736 mmHg 87%
    Mehr zeigen